owner,sensor,date,latitude,longitude,vertical_datum,wind_speed,wind_to_direction,wind_speed_of_gust,qcFlag 
NDBC,ioos:station:NOAA.NDBC:PTAT2:1,2016-04-01T00:00:00Z,27.8260,-97.0510,14.9,3.6,130.0,4.1,'1111122,1111122,1111122' 
NDBC,ioos:station:NOAA.NDBC:PTAT2:1,2016-04-01T01:00:00Z,27.8260,-97.0510,14.9,4.6,130.0,5.1,'1111122,1111122,1111122' 
NDBC,ioos:station:NOAA.NDBC:PTAT2:1,2016-04-01T02:00:00Z,27.8260,-97.0510,14.9,4.1,130.0,4.6,'1111122,1111122,1111122' 
NDBC,ioos:station:NOAA.NDBC:PTAT2:1,2016-04-01T03:00:00Z,27.8260,-97.0510,14.9,4.6,130.0,4.6,'1111122,1111122,1111122' 
NDBC,ioos:station:NOAA.NDBC:PTAT2:1,2016-04-01T04:00:00Z,27.8260,-97.0510,14.9,4.6,130.0,4.6,'1111122,1111122,1111122' 
NDBC,ioos:station:NOAA.NDBC:PTAT2:1,2016-04-01T05:00:00Z,27.8260,-97.0510,14.9,4.1,130.0,4.1,'1111122,1111122,1111122' 
NDBC,ioos:station:NOAA.NDBC:PTAT2:1,2016-04-01T06:00:00Z,27.8260,-97.0510,14.9,5.1,130.0,6.2,'1111122,1111122,1111122' 
NDBC,ioos:station:NOAA.NDBC:PTAT2:1,2016-04-01T07:00:00Z,27.8260,-97.0510,14.9,4.6,110.0,5.1,'1111122,1111122,1111122' 
NDBC,ioos:station:NOAA.NDBC:PTAT2:1,2016-04-01T08:00:00Z,27.8260,-97.0510,14.9,4.6,320.0,5.7,'1111122,1111122,1111122' 
NDBC,ioos:station:NOAA.NDBC:PTAT2:1,2016-04-01T09:00:00Z,27.8260,-97.0510,14.9,4.1,90.0,4.6,'1111122,1111122,1111122' 
NDBC,ioos:station:NOAA.NDBC:PTAT2:1,2016-04-01T10:00:00Z,27.8260,-97.0510,14.9,9.3,10.0,10.3,'1111122,1111122,1111122' 
NDBC,ioos:station:NOAA.NDBC:PTAT2:1,2016-04-01T11:00:00Z,27.8260,-97.0510,14.9,9.8,50.0,11.3,'1111122,1111122,1111122' 
NDBC,ioos:station:NOAA.NDBC:PTAT2:1,2016-04-01T12:00:00Z,27.8260,-97.0510,14.9,8.2,30.0,9.3,'1111122,1111122,1111122' 
NDBC,ioos:station:NOAA.NDBC:PTAT2:1,2016-04-01T13:00:00Z,27.8260,-97.0510,14.9,8.8,40.0,9.8,'1111122,1111122,1111122' 
NDBC,ioos:station:NOAA.NDBC:PTAT2:1,2016-04-01T14:00:00Z,27.8260,-97.0510,14.9,10.3,360.0,11.8,'1111122,1111122,1111122' 
NDBC,ioos:station:NOAA.NDBC:PTAT2:1,2016-04-01T15:00:00Z,27.8260,-97.0510,14.9,13.4,20.0,14.4,'1111122,1111122,1111122' 
NDBC,ioos:station:NOAA.NDBC:PTAT2:1,2016-04-01T16:00:00Z,27.8260,-97.0510,14.9,12.9,10.0,13.9,'1111122,1111122,1111122' 
NDBC,ioos:station:NOAA.NDBC:PTAT2:1,2016-04-01T17:00:00Z,27.8260,-97.0510,14.9,11.8,10.0,12.9,'1111122,1111122,1111122' 
NDBC,ioos:station:NOAA.NDBC:PTAT2:1,2016-04-01T18:00:00Z,27.8260,-97.0510,14.9,13.9,20.0,15.4,'1111122,1111122,1111122' 
NDBC,ioos:station:NOAA.NDBC:PTAT2:1,2016-04-01T19:00:00Z,27.8260,-97.0510,14.9,10.8,10.0,12.9,'1111122,1111122,1111122' 
NDBC,ioos:station:NOAA.NDBC:PTAT2:1,2016-04-01T20:00:00Z,27.8260,-97.0510,14.9,12.9,20.0,14.4,'1111122,1111122,1111122' 
NDBC,ioos:station:NOAA.NDBC:PTAT2:1,2016-04-01T21:00:00Z,27.8260,-97.0510,14.9,11.3,20.0,12.9,'1111122,1111122,1111122' 
NDBC,ioos:station:NOAA.NDBC:PTAT2:1,2016-04-01T22:00:00Z,27.8260,-97.0510,14.9,13.4,10.0,14.4,'1111122,1111122,1111122' 
NDBC,ioos:station:NOAA.NDBC:PTAT2:1,2016-04-01T23:00:00Z,27.8260,-97.0510,14.9,11.8,10.0,13.4,'1111122,1111122,1111122' 
NDBC,ioos:station:NOAA.NDBC:PTAT2:1,2016-04-02T00:00:00Z,27.8260,-97.0510,14.9,11.3,360.0,12.9,'1111122,1111122,1111122' 
NDBC,ioos:station:NOAA.NDBC:PTAT2:1,2016-04-02T01:00:00Z,27.8260,-97.0510,14.9,11.3,350.0,12.9,'1111122,1111122,1111122' 
NDBC,ioos:station:NOAA.NDBC:PTAT2:1,2016-04-02T02:00:00Z,27.8260,-97.0510,14.9,11.3,350.0,13.9,'1111122,1111122,1111122' 
NDBC,ioos:station:NOAA.NDBC:PTAT2:1,2016-04-02T03:00:00Z,27.8260,-97.0510,14.9,11.3,350.0,13.4,'1111122,1111122,1111122' 
NDBC,ioos:station:NOAA.NDBC:PTAT2:1,2016-04-02T04:00:00Z,27.8260,-97.0510,14.9,12.9,360.0,14.4,'1111122,1111122,1111122' 
NDBC,ioos:station:NOAA.NDBC:PTAT2:1,2016-04-02T05:00:00Z,27.8260,-97.0510,14.9,11.3,360.0,13.9,'1111122,1111122,1111122' 
NDBC,ioos:station:NOAA.NDBC:PTAT2:1,2016-04-02T06:00:00Z,27.8260,-97.0510,14.9,9.3,360.0,11.3,'1111122,1111122,1111122' 
NDBC,ioos:station:NOAA.NDBC:PTAT2:1,2016-04-02T07:00:00Z,27.8260,-97.0510,14.9,9.8,360.0,11.8,'1111122,1111122,1111122' 
NDBC,ioos:station:NOAA.NDBC:PTAT2:1,2016-04-02T08:00:00Z,27.8260,-97.0510,14.9,10.3,360.0,12.4,'1111122,1111122,1111122' 
NDBC,ioos:station:NOAA.NDBC:PTAT2:1,2016-04-02T09:00:00Z,27.8260,-97.0510,14.9,7.2,360.0,8.8,'1111122,1111122,1111122' 
NDBC,ioos:station:NOAA.NDBC:PTAT2:1,2016-04-02T10:00:00Z,27.8260,-97.0510,14.9,7.7,350.0,9.3,'1111122,1111122,1111122' 
NDBC,ioos:station:NOAA.NDBC:PTAT2:1,2016-04-02T11:00:00Z,27.8260,-97.0510,14.9,7.2,340.0,8.8,'1111122,1111122,1111122' 
NDBC,ioos:station:NOAA.NDBC:PTAT2:1,2016-04-02T12:00:00Z,27.8260,-97.0510,14.9,9.3,340.0,10.8,'1111122,1111122,1111122' 
NDBC,ioos:station:NOAA.NDBC:PTAT2:1,2016-04-02T13:00:00Z,27.8260,-97.0510,14.9,6.7,350.0,8.2,'1111122,1111122,1111122' 
NDBC,ioos:station:NOAA.NDBC:PTAT2:1,2016-04-02T14:00:00Z,27.8260,-97.0510,14.9,8.2,340.0,10.3,'1111122,1111122,1111122' 
NDBC,ioos:station:NOAA.NDBC:PTAT2:1,2016-04-02T15:00:00Z,27.8260,-97.0510,14.9,7.7,340.0,8.8,'1111122,1111122,1111122' 
NDBC,ioos:station:NOAA.NDBC:PTAT2:1,2016-04-02T16:00:00Z,27.8260,-97.0510,14.9,6.7,340.0,7.7,'1111122,1111122,1111122' 
NDBC,ioos:station:NOAA.NDBC:PTAT2:1,2016-04-02T17:00:00Z,27.8260,-97.0510,14.9,5.7,350.0,8.2,'1111122,1111122,1111122' 
NDBC,ioos:station:NOAA.NDBC:PTAT2:1,2016-04-02T18:00:00Z,27.8260,-97.0510,14.9,5.7,350.0,7.2,'1111122,1111122,1111122' 
NDBC,ioos:station:NOAA.NDBC:PTAT2:1,2016-04-02T19:00:00Z,27.8260,-97.0510,14.9,4.6,20.0,5.7,'1111122,1111122,1111122' 
NDBC,ioos:station:NOAA.NDBC:PTAT2:1,2016-04-02T20:00:00Z,27.8260,-97.0510,14.9,3.6,90.0,3.6,'1111122,1111122,1111122' 
NDBC,ioos:station:NOAA.NDBC:PTAT2:1,2016-04-02T21:00:00Z,27.8260,-97.0510,14.9,3.1,110.0,3.1,'1111122,1111122,1111122' 
NDBC,ioos:station:NOAA.NDBC:PTAT2:1,2016-04-02T22:00:00Z,27.8260,-97.0510,14.9,4.1,120.0,4.6,'1111122,1111122,1111122' 
NDBC,ioos:station:NOAA.NDBC:PTAT2:1,2016-04-02T23:00:00Z,27.8260,-97.0510,14.9,4.1,150.0,4.1,'1111122,1111122,1111122' 
NDBC,ioos:station:NOAA.NDBC:PTAT2:1,2016-04-03T00:00:00Z,27.8260,-97.0510,14.9,3.1,160.0,3.6,'1111122,1111122,1111122' 
NDBC,ioos:station:NOAA.NDBC:PTAT2:1,2016-04-03T01:00:00Z,27.8260,-97.0510,14.9,3.1,160.0,3.1,'1111122,1111122,1111122' 
NDBC,ioos:station:NOAA.NDBC:PTAT2:1,2016-04-03T02:00:00Z,27.8260,-97.0510,14.9,2.6,150.0,2.6,'1111122,1111122,1111122' 
NDBC,ioos:station:NOAA.NDBC:PTAT2:1,2016-04-03T03:00:00Z,27.8260,-97.0510,14.9,1.5,180.0,1.5,'1111122,1111122,1111122' 
NDBC,ioos:station:NOAA.NDBC:PTAT2:1,2016-04-03T04:00:00Z,27.8260,-97.0510,14.9,2.1,230.0,2.6,'1111122,1111122,1111122' 
NDBC,ioos:station:NOAA.NDBC:PTAT2:1,2016-04-03T05:00:00Z,27.8260,-97.0510,14.9,2.1,240.0,2.6,'1111122,1111122,1111122' 
NDBC,ioos:station:NOAA.NDBC:PTAT2:1,2016-04-03T06:00:00Z,27.8260,-97.0510,14.9,2.6,250.0,3.1,'1111122,1111122,1111122' 
NDBC,ioos:station:NOAA.NDBC:PTAT2:1,2016-04-03T07:00:00Z,27.8260,-97.0510,14.9,3.1,240.0,3.6,'1111122,1111122,1111122' 
NDBC,ioos:station:NOAA.NDBC:PTAT2:1,2016-04-03T08:00:00Z,27.8260,-97.0510,14.9,3.6,260.0,3.6,'1111122,1111122,1111122' 
NDBC,ioos:station:NOAA.NDBC:PTAT2:1,2016-04-03T09:00:00Z,27.8260,-97.0510,14.9,4.1,240.0,4.6,'1111122,1111122,1111122' 
NDBC,ioos:station:NOAA.NDBC:PTAT2:1,2016-04-03T10:00:00Z,27.8260,-97.0510,14.9,3.6,260.0,4.1,'1111122,1111122,1111122' 
NDBC,ioos:station:NOAA.NDBC:PTAT2:1,2016-04-03T11:00:00Z,27.8260,-97.0510,14.9,3.6,270.0,4.1,'1111122,1111122,1111122' 
NDBC,ioos:station:NOAA.NDBC:PTAT2:1,2016-04-03T12:00:00Z,27.8260,-97.0510,14.9,2.6,250.0,3.1,'1111122,1111122,1111122' 
NDBC,ioos:station:NOAA.NDBC:PTAT2:1,2016-04-03T13:00:00Z,27.8260,-97.0510,14.9,3.6,260.0,4.1,'1111122,1111122,1111122' 
NDBC,ioos:station:NOAA.NDBC:PTAT2:1,2016-04-03T14:00:00Z,27.8260,-97.0510,14.9,3.6,270.0,4.6,'1111122,1111122,1111122' 
NDBC,ioos:station:NOAA.NDBC:PTAT2:1,2016-04-03T15:00:00Z,27.8260,-97.0510,14.9,3.6,270.0,5.1,'1111122,1111122,1111122' 
NDBC,ioos:station:NOAA.NDBC:PTAT2:1,2016-04-03T16:00:00Z,27.8260,-97.0510,14.9,3.6,260.0,5.1,'1111122,1111122,1111122' 
NDBC,ioos:station:NOAA.NDBC:PTAT2:1,2016-04-03T17:00:00Z,27.8260,-97.0510,14.9,2.1,180.0,3.1,'1111122,1111122,1111122' 
NDBC,ioos:station:NOAA.NDBC:PTAT2:1,2016-04-03T18:00:00Z,27.8260,-97.0510,14.9,2.1,130.0,2.6,'1111122,1111122,1111122' 
NDBC,ioos:station:NOAA.NDBC:PTAT2:1,2016-04-03T19:00:00Z,27.8260,-97.0510,14.9,3.1,120.0,3.6,'1111122,1111122,1111122' 
NDBC,ioos:station:NOAA.NDBC:PTAT2:1,2016-04-03T20:00:00Z,27.8260,-97.0510,14.9,4.1,130.0,4.6,'1111122,1111122,1111122' 
NDBC,ioos:station:NOAA.NDBC:PTAT2:1,2016-04-03T21:00:00Z,27.8260,-97.0510,14.9,5.7,130.0,6.7,'1111122,1111122,1111122' 
NDBC,ioos:station:NOAA.NDBC:PTAT2:1,2016-04-03T22:00:00Z,27.8260,-97.0510,14.9,6.7,130.0,7.2,'1111122,1111122,1111122' 
NDBC,ioos:station:NOAA.NDBC:PTAT2:1,2016-04-03T23:00:00Z,27.8260,-97.0510,14.9,7.7,130.0,8.2,'1111122,1111122,1111122' 
NDBC,ioos:station:NOAA.NDBC:PTAT2:1,2016-04-04T00:00:00Z,27.8260,-97.0510,14.9,8.8,130.0,8.8,'1111122,1111122,1111122' 
NDBC,ioos:station:NOAA.NDBC:PTAT2:1,2016-04-04T01:00:00Z,27.8260,-97.0510,14.9,8.2,140.0,8.2,'1111122,1111122,1111122' 
NDBC,ioos:station:NOAA.NDBC:PTAT2:1,2016-04-04T02:00:00Z,27.8260,-97.0510,14.9,8.2,140.0,9.3,'1111122,1111122,1111122' 
NDBC,ioos:station:NOAA.NDBC:PTAT2:1,2016-04-04T03:00:00Z,27.8260,-97.0510,14.9,8.2,140.0,9.3,'1111122,1111122,1111122' 
NDBC,ioos:station:NOAA.NDBC:PTAT2:1,2016-04-04T04:00:00Z,27.8260,-97.0510,14.9,7.7,140.0,8.8,'1111122,1111122,1111122' 
NDBC,ioos:station:NOAA.NDBC:PTAT2:1,2016-04-04T05:00:00Z,27.8260,-97.0510,14.9,8.2,150.0,9.3,'1111122,1111122,1111122' 
NDBC,ioos:station:NOAA.NDBC:PTAT2:1,2016-04-04T06:00:00Z,27.8260,-97.0510,14.9,8.8,150.0,9.3,'1111122,1111122,1111122' 
NDBC,ioos:station:NOAA.NDBC:PTAT2:1,2016-04-04T07:00:00Z,27.8260,-97.0510,14.9,8.2,160.0,8.8,'1111122,1111122,1111122' 
NDBC,ioos:station:NOAA.NDBC:PTAT2:1,2016-04-04T08:00:00Z,27.8260,-97.0510,14.9,7.2,170.0,8.2,'1111122,1111122,1111122' 
NDBC,ioos:station:NOAA.NDBC:PTAT2:1,2016-04-04T09:00:00Z,27.8260,-97.0510,14.9,6.7,170.0,7.2,'1111122,1111122,1111122' 
NDBC,ioos:station:NOAA.NDBC:PTAT2:1,2016-04-04T10:00:00Z,27.8260,-97.0510,14.9,6.2,170.0,6.7,'1111122,1111122,1111122' 
NDBC,ioos:station:NOAA.NDBC:PTAT2:1,2016-04-04T11:00:00Z,27.8260,-97.0510,14.9,5.7,180.0,6.2,'1111122,1111122,1111122' 
NDBC,ioos:station:NOAA.NDBC:PTAT2:1,2016-04-04T12:00:00Z,27.8260,-97.0510,14.9,5.1,180.0,5.7,'1111122,1111122,1111122' 
NDBC,ioos:station:NOAA.NDBC:PTAT2:1,2016-04-04T13:00:00Z,27.8260,-97.0510,14.9,3.1,230.0,3.6,'1111122,1111122,1111122' 
NDBC,ioos:station:NOAA.NDBC:PTAT2:1,2016-04-04T14:00:00Z,27.8260,-97.0510,14.9,4.6,210.0,4.6,'1111122,1111122,1111122' 
NDBC,ioos:station:NOAA.NDBC:PTAT2:1,2016-04-04T15:00:00Z,27.8260,-97.0510,14.9,3.6,190.0,4.1,'1111122,1111122,1111122' 
NDBC,ioos:station:NOAA.NDBC:PTAT2:1,2016-04-04T16:00:00Z,27.8260,-97.0510,14.9,4.1,180.0,4.1,'1111122,1111122,1111122' 
NDBC,ioos:station:NOAA.NDBC:PTAT2:1,2016-04-04T17:00:00Z,27.8260,-97.0510,14.9,3.6,170.0,4.1,'1111122,1111122,1111122' 
NDBC,ioos:station:NOAA.NDBC:PTAT2:1,2016-04-04T18:00:00Z,27.8260,-97.0510,14.9,4.6,170.0,4.6,'1111122,1111122,1111122' 
NDBC,ioos:station:NOAA.NDBC:PTAT2:1,2016-04-04T19:00:00Z,27.8260,-97.0510,14.9,4.1,160.0,4.6,'1111122,1111122,1111122' 
NDBC,ioos:station:NOAA.NDBC:PTAT2:1,2016-04-04T20:00:00Z,27.8260,-97.0510,14.9,4.6,150.0,4.6,'1111122,1111122,1111122' 
NDBC,ioos:station:NOAA.NDBC:PTAT2:1,2016-04-04T21:00:00Z,27.8260,-97.0510,14.9,4.6,130.0,4.6,'1111122,1111122,1111122' 
NDBC,ioos:station:NOAA.NDBC:PTAT2:1,2016-04-04T22:00:00Z,27.8260,-97.0510,14.9,4.1,120.0,4.6,'1111122,1111122,1111122' 
NDBC,ioos:station:NOAA.NDBC:PTAT2:1,2016-04-04T23:00:00Z,27.8260,-97.0510,14.9,4.1,120.0,4.6,'1111122,1111122,1111122' 
NDBC,ioos:station:NOAA.NDBC:PTAT2:1,2016-04-05T00:00:00Z,27.8260,-97.0510,14.9,4.1,110.0,4.6,'1111122,1111122,1111122' 
NDBC,ioos:station:NOAA.NDBC:PTAT2:1,2016-04-05T01:00:00Z,27.8260,-97.0510,14.9,5.1,110.0,5.7,'1111122,1111122,1111122' 
NDBC,ioos:station:NOAA.NDBC:PTAT2:1,2016-04-05T02:00:00Z,27.8260,-97.0510,14.9,6.2,100.0,6.2,'1111122,1111122,1111122' 
NDBC,ioos:station:NOAA.NDBC:PTAT2:1,2016-04-05T03:00:00Z,27.8260,-97.0510,14.9,6.2,110.0,6.7,'1111122,1111122,1111122' 
NDBC,ioos:station:NOAA.NDBC:PTAT2:1,2016-04-05T04:00:00Z,27.8260,-97.0510,14.9,7.2,110.0,7.7,'1111122,1111122,1111122' 
NDBC,ioos:station:NOAA.NDBC:PTAT2:1,2016-04-05T05:00:00Z,27.8260,-97.0510,14.9,6.7,120.0,7.2,'1111122,1111122,1111122' 
NDBC,ioos:station:NOAA.NDBC:PTAT2:1,2016-04-05T06:00:00Z,27.8260,-97.0510,14.9,6.2,130.0,7.2,'1111122,1111122,1111122' 
NDBC,ioos:station:NOAA.NDBC:PTAT2:1,2016-04-05T07:00:00Z,27.8260,-97.0510,14.9,6.7,140.0,7.2,'1111122,1111122,1111122' 
NDBC,ioos:station:NOAA.NDBC:PTAT2:1,2016-04-05T08:00:00Z,27.8260,-97.0510,14.9,6.7,140.0,7.7,'1111122,1111122,1111122' 
NDBC,ioos:station:NOAA.NDBC:PTAT2:1,2016-04-05T09:00:00Z,27.8260,-97.0510,14.9,6.7,160.0,6.7,'1111122,1111122,1111122' 
NDBC,ioos:station:NOAA.NDBC:PTAT2:1,2016-04-05T18:00:00Z,27.8260,-97.0510,14.9,5.1,140.0,5.7,'1111122,1111122,1111122' 
NDBC,ioos:station:NOAA.NDBC:PTAT2:1,2016-04-05T19:00:00Z,27.8260,-97.0510,14.9,4.6,140.0,5.1,'1111122,1111122,1111122' 
NDBC,ioos:station:NOAA.NDBC:PTAT2:1,2016-04-05T20:00:00Z,27.8260,-97.0510,14.9,4.6,150.0,5.1,'1111122,1111122,1111122' 
NDBC,ioos:station:NOAA.NDBC:PTAT2:1,2016-04-05T21:00:00Z,27.8260,-97.0510,14.9,4.6,140.0,5.1,'1111122,1111122,1111122' 
NDBC,ioos:station:NOAA.NDBC:PTAT2:1,2016-04-05T22:00:00Z,27.8260,-97.0510,14.9,5.1,120.0,5.7,'1111122,1111122,1111122' 
NDBC,ioos:station:NOAA.NDBC:PTAT2:1,2016-04-05T23:00:00Z,27.8260,-97.0510,14.9,6.7,130.0,7.2,'1111122,1111122,1111122' 
NDBC,ioos:station:NOAA.NDBC:PTAT2:1,2016-04-06T00:00:00Z,27.8260,-97.0510,14.9,5.7,120.0,6.2,'1111122,1111122,1111122' 
NDBC,ioos:station:NOAA.NDBC:PTAT2:1,2016-04-06T01:00:00Z,27.8260,-97.0510,14.9,8.2,120.0,8.8,'1111122,1111122,1111122' 
NDBC,ioos:station:NOAA.NDBC:PTAT2:1,2016-04-06T02:00:00Z,27.8260,-97.0510,14.9,7.2,120.0,8.2,'1111122,1111122,1111122' 
NDBC,ioos:station:NOAA.NDBC:PTAT2:1,2016-04-06T03:00:00Z,27.8260,-97.0510,14.9,8.2,130.0,9.8,'1111122,1111122,1111122' 
NDBC,ioos:station:NOAA.NDBC:PTAT2:1,2016-04-06T04:00:00Z,27.8260,-97.0510,14.9,9.8,140.0,10.8,'1111122,1111122,1111122' 
NDBC,ioos:station:NOAA.NDBC:PTAT2:1,2016-04-06T05:00:00Z,27.8260,-97.0510,14.9,9.8,140.0,10.8,'1111122,1111122,1111122' 
NDBC,ioos:station:NOAA.NDBC:PTAT2:1,2016-04-06T06:00:00Z,27.8260,-97.0510,14.9,10.3,150.0,10.8,'1111122,1111122,1111122' 
NDBC,ioos:station:NOAA.NDBC:PTAT2:1,2016-04-06T07:00:00Z,27.8260,-97.0510,14.9,10.3,150.0,11.3,'1111122,1111122,1111122' 
NDBC,ioos:station:NOAA.NDBC:PTAT2:1,2016-04-06T08:00:00Z,27.8260,-97.0510,14.9,9.3,160.0,10.8,'1111122,1111122,1111122' 
NDBC,ioos:station:NOAA.NDBC:PTAT2:1,2016-04-06T09:00:00Z,27.8260,-97.0510,14.9,8.8,160.0,9.8,'1111122,1111122,1111122' 
NDBC,ioos:station:NOAA.NDBC:PTAT2:1,2016-04-06T10:00:00Z,27.8260,-97.0510,14.9,8.8,160.0,9.8,'1111122,1111122,1111122' 
NDBC,ioos:station:NOAA.NDBC:PTAT2:1,2016-04-06T11:00:00Z,27.8260,-97.0510,14.9,7.7,160.0,8.8,'1111122,1111122,1111122' 
NDBC,ioos:station:NOAA.NDBC:PTAT2:1,2016-04-06T12:00:00Z,27.8260,-97.0510,14.9,7.2,160.0,7.7,'1111122,1111122,1111122' 
NDBC,ioos:station:NOAA.NDBC:PTAT2:1,2016-04-06T13:00:00Z,27.8260,-97.0510,14.9,7.2,160.0,8.2,'1111122,1111122,1111122' 
NDBC,ioos:station:NOAA.NDBC:PTAT2:1,2016-04-06T14:00:00Z,27.8260,-97.0510,14.9,6.7,170.0,7.2,'1111122,1111122,1111122' 
NDBC,ioos:station:NOAA.NDBC:PTAT2:1,2016-04-06T15:00:00Z,27.8260,-97.0510,14.9,5.1,160.0,5.7,'1111122,1111122,1111122' 
NDBC,ioos:station:NOAA.NDBC:PTAT2:1,2016-04-06T16:00:00Z,27.8260,-97.0510,14.9,3.1,170.0,4.1,'1111122,1111122,1111122' 
NDBC,ioos:station:NOAA.NDBC:PTAT2:1,2016-04-06T17:00:00Z,27.8260,-97.0510,14.9,3.6,110.0,3.6,'1111122,1111122,1111122' 
NDBC,ioos:station:NOAA.NDBC:PTAT2:1,2016-04-06T18:00:00Z,27.8260,-97.0510,14.9,4.6,100.0,5.1,'1111122,1111122,1111122' 
NDBC,ioos:station:NOAA.NDBC:PTAT2:1,2016-04-06T19:00:00Z,27.8260,-97.0510,14.9,4.6,100.0,4.6,'1111122,1111122,1111122' 
NDBC,ioos:station:NOAA.NDBC:PTAT2:1,2016-04-06T20:00:00Z,27.8260,-97.0510,14.9,4.6,90.0,4.6,'1111122,1111122,1111122' 
NDBC,ioos:station:NOAA.NDBC:PTAT2:1,2016-04-06T21:00:00Z,27.8260,-97.0510,14.9,4.6,130.0,4.6,'1111122,1111122,1111122' 
NDBC,ioos:station:NOAA.NDBC:PTAT2:1,2016-04-06T22:00:00Z,27.8260,-97.0510,14.9,3.1,100.0,3.1,'1111122,1111122,1111122' 
NDBC,ioos:station:NOAA.NDBC:PTAT2:1,2016-04-06T23:00:00Z,27.8260,-97.0510,14.9,3.1,130.0,3.6,'1111122,1111122,1111122' 
NDBC,ioos:station:NOAA.NDBC:PTAT2:1,2016-04-07T00:00:00Z,27.8260,-97.0510,14.9,3.6,130.0,3.6,'1111122,1111122,1111122' 
NDBC,ioos:station:NOAA.NDBC:PTAT2:1,2016-04-07T01:00:00Z,27.8260,-97.0510,14.9,2.6,160.0,3.1,'1111122,1111122,1111122' 
NDBC,ioos:station:NOAA.NDBC:PTAT2:1,2016-04-07T02:00:00Z,27.8260,-97.0510,14.9,1.5,190.0,2.1,'1111122,1111122,1111122' 
NDBC,ioos:station:NOAA.NDBC:PTAT2:1,2016-04-07T03:00:00Z,27.8260,-97.0510,14.9,2.6,190.0,2.6,'1111122,1111122,1111122' 
NDBC,ioos:station:NOAA.NDBC:PTAT2:1,2016-04-07T04:00:00Z,27.8260,-97.0510,14.9,1.5,240.0,2.1,'1111122,1111122,1111122' 
NDBC,ioos:station:NOAA.NDBC:PTAT2:1,2016-04-07T05:00:00Z,27.8260,-97.0510,14.9,2.1,270.0,2.6,'1111122,1111122,1111122' 
NDBC,ioos:station:NOAA.NDBC:PTAT2:1,2016-04-07T06:00:00Z,27.8260,-97.0510,14.9,1.0,290.0,1.5,'1111122,1111122,1111122' 
NDBC,ioos:station:NOAA.NDBC:PTAT2:1,2016-04-07T07:00:00Z,27.8260,-97.0510,14.9,1.0,220.0,1.5,'1111122,1111122,1111122' 
NDBC,ioos:station:NOAA.NDBC:PTAT2:1,2016-04-07T08:00:00Z,27.8260,-97.0510,14.9,2.1,230.0,2.1,'1111122,1111122,1111122' 
NDBC,ioos:station:NOAA.NDBC:PTAT2:1,2016-04-07T09:00:00Z,27.8260,-97.0510,14.9,2.1,300.0,2.6,'1111122,1111122,1111122' 
NDBC,ioos:station:NOAA.NDBC:PTAT2:1,2016-04-07T10:00:00Z,27.8260,-97.0510,14.9,2.1,320.0,2.1,'1111122,1111122,1111122' 
NDBC,ioos:station:NOAA.NDBC:PTAT2:1,2016-04-07T11:00:00Z,27.8260,-97.0510,14.9,1.0,300.0,1.5,'1111122,1111122,1111122' 
NDBC,ioos:station:NOAA.NDBC:PTAT2:1,2016-04-07T12:00:00Z,27.8260,-97.0510,14.9,1.5,320.0,1.5,'1111122,1111122,1111122' 
NDBC,ioos:station:NOAA.NDBC:PTAT2:1,2016-04-07T13:00:00Z,27.8260,-97.0510,14.9,1.0,210.0,1.5,'1111122,1111122,1111122' 
NDBC,ioos:station:NOAA.NDBC:PTAT2:1,2016-04-07T14:00:00Z,27.8260,-97.0510,14.9,1.5,210.0,1.5,'1111122,1111122,1111122' 
NDBC,ioos:station:NOAA.NDBC:PTAT2:1,2016-04-07T15:00:00Z,27.8260,-97.0510,14.9,0.5,160.0,1.0,'1111122,1111122,1111122' 
NDBC,ioos:station:NOAA.NDBC:PTAT2:1,2016-04-07T16:00:00Z,27.8260,-97.0510,14.9,1.0,160.0,1.5,'1111122,1111122,1111122' 
NDBC,ioos:station:NOAA.NDBC:PTAT2:1,2016-04-07T17:00:00Z,27.8260,-97.0510,14.9,2.1,160.0,2.1,'1111122,1111122,1111122' 
NDBC,ioos:station:NOAA.NDBC:PTAT2:1,2016-04-07T18:00:00Z,27.8260,-97.0510,14.9,3.1,160.0,3.6,'1111122,1111122,1111122' 
NDBC,ioos:station:NOAA.NDBC:PTAT2:1,2016-04-07T19:00:00Z,27.8260,-97.0510,14.9,4.1,160.0,5.1,'1111122,1111122,1111122' 
NDBC,ioos:station:NOAA.NDBC:PTAT2:1,2016-04-07T20:00:00Z,27.8260,-97.0510,14.9,4.1,160.0,4.6,'1111122,1111122,1111122' 
NDBC,ioos:station:NOAA.NDBC:PTAT2:1,2016-04-07T21:00:00Z,27.8260,-97.0510,14.9,4.6,160.0,5.1,'1111122,1111122,1111122' 
NDBC,ioos:station:NOAA.NDBC:PTAT2:1,2016-04-07T22:00:00Z,27.8260,-97.0510,14.9,4.6,140.0,5.1,'1111122,1111122,1111122' 
NDBC,ioos:station:NOAA.NDBC:PTAT2:1,2016-04-07T23:00:00Z,27.8260,-97.0510,14.9,4.6,120.0,5.1,'1111122,1111122,1111122' 
NDBC,ioos:station:NOAA.NDBC:PTAT2:1,2016-04-08T00:00:00Z,27.8260,-97.0510,14.9,4.1,120.0,4.6,'1111122,1111122,1111122' 
NDBC,ioos:station:NOAA.NDBC:PTAT2:1,2016-04-08T01:00:00Z,27.8260,-97.0510,14.9,4.6,140.0,5.1,'1111122,1111122,1111122' 
NDBC,ioos:station:NOAA.NDBC:PTAT2:1,2016-04-08T02:00:00Z,27.8260,-97.0510,14.9,4.6,130.0,5.1,'1111122,1111122,1111122' 
NDBC,ioos:station:NOAA.NDBC:PTAT2:1,2016-04-08T03:00:00Z,27.8260,-97.0510,14.9,3.6,120.0,4.1,'1111122,1111122,1111122' 
NDBC,ioos:station:NOAA.NDBC:PTAT2:1,2016-04-08T04:00:00Z,27.8260,-97.0510,14.9,4.1,110.0,4.1,'1111122,1111122,1111122' 
NDBC,ioos:station:NOAA.NDBC:PTAT2:1,2016-04-08T05:00:00Z,27.8260,-97.0510,14.9,4.6,100.0,5.1,'1111122,1111122,1111122' 
NDBC,ioos:station:NOAA.NDBC:PTAT2:1,2016-04-08T06:00:00Z,27.8260,-97.0510,14.9,6.2,90.0,7.2,'1111122,1111122,1111122' 
NDBC,ioos:station:NOAA.NDBC:PTAT2:1,2016-04-08T07:00:00Z,27.8260,-97.0510,14.9,6.7,110.0,7.2,'1111122,1111122,1111122' 
NDBC,ioos:station:NOAA.NDBC:PTAT2:1,2016-04-08T08:00:00Z,27.8260,-97.0510,14.9,4.1,130.0,4.6,'1111122,1111122,1111122' 
NDBC,ioos:station:NOAA.NDBC:PTAT2:1,2016-04-08T09:00:00Z,27.8260,-97.0510,14.9,4.6,130.0,5.1,'1111122,1111122,1111122' 
NDBC,ioos:station:NOAA.NDBC:PTAT2:1,2016-04-08T10:00:00Z,27.8260,-97.0510,14.9,4.1,140.0,4.6,'1111122,1111122,1111122' 
NDBC,ioos:station:NOAA.NDBC:PTAT2:1,2016-04-08T11:00:00Z,27.8260,-97.0510,14.9,4.6,150.0,5.1,'1111122,1111122,1111122' 
NDBC,ioos:station:NOAA.NDBC:PTAT2:1,2016-04-08T12:00:00Z,27.8260,-97.0510,14.9,3.6,110.0,3.6,'1111122,1111122,1111122' 
NDBC,ioos:station:NOAA.NDBC:PTAT2:1,2016-04-08T13:00:00Z,27.8260,-97.0510,14.9,4.6,80.0,5.1,'1111122,1111122,1111122' 
NDBC,ioos:station:NOAA.NDBC:PTAT2:1,2016-04-08T14:00:00Z,27.8260,-97.0510,14.9,4.1,80.0,4.1,'1111122,1111122,1111122' 
NDBC,ioos:station:NOAA.NDBC:PTAT2:1,2016-04-08T15:00:00Z,27.8260,-97.0510,14.9,4.6,70.0,5.1,'1111122,1111122,1111122' 
NDBC,ioos:station:NOAA.NDBC:PTAT2:1,2016-04-08T16:00:00Z,27.8260,-97.0510,14.9,4.1,90.0,4.6,'1111122,1111122,1111122' 
NDBC,ioos:station:NOAA.NDBC:PTAT2:1,2016-04-08T17:00:00Z,27.8260,-97.0510,14.9,4.6,50.0,5.1,'1111122,1111122,1111122' 
NDBC,ioos:station:NOAA.NDBC:PTAT2:1,2016-04-08T18:00:00Z,27.8260,-97.0510,14.9,6.7,50.0,7.7,'1111122,1111122,1111122' 
NDBC,ioos:station:NOAA.NDBC:PTAT2:1,2016-04-08T19:00:00Z,27.8260,-97.0510,14.9,6.7,50.0,7.7,'1111122,1111122,1111122' 
NDBC,ioos:station:NOAA.NDBC:PTAT2:1,2016-04-08T20:00:00Z,27.8260,-97.0510,14.9,5.7,60.0,6.2,'1111122,1111122,1111122' 
NDBC,ioos:station:NOAA.NDBC:PTAT2:1,2016-04-08T21:00:00Z,27.8260,-97.0510,14.9,6.2,50.0,6.7,'1111122,1111122,1111122' 
NDBC,ioos:station:NOAA.NDBC:PTAT2:1,2016-04-08T22:00:00Z,27.8260,-97.0510,14.9,6.7,50.0,6.7,'1111122,1111122,1111122' 
NDBC,ioos:station:NOAA.NDBC:PTAT2:1,2016-04-08T23:00:00Z,27.8260,-97.0510,14.9,5.7,80.0,6.2,'1111122,1111122,1111122' 
NDBC,ioos:station:NOAA.NDBC:PTAT2:1,2016-04-09T00:00:00Z,27.8260,-97.0510,14.9,6.2,90.0,6.7,'1111122,1111122,1111122' 
NDBC,ioos:station:NOAA.NDBC:PTAT2:1,2016-04-09T01:00:00Z,27.8260,-97.0510,14.9,7.7,100.0,8.2,'1111122,1111122,1111122' 
NDBC,ioos:station:NOAA.NDBC:PTAT2:1,2016-04-09T02:00:00Z,27.8260,-97.0510,14.9,8.8,90.0,9.8,'1111122,1111122,1111122' 
NDBC,ioos:station:NOAA.NDBC:PTAT2:1,2016-04-09T03:00:00Z,27.8260,-97.0510,14.9,9.8,90.0,10.3,'1111122,1111122,1111122' 
NDBC,ioos:station:NOAA.NDBC:PTAT2:1,2016-04-09T04:00:00Z,27.8260,-97.0510,14.9,10.3,90.0,10.8,'1111122,1111122,1111122' 
NDBC,ioos:station:NOAA.NDBC:PTAT2:1,2016-04-09T05:00:00Z,27.8260,-97.0510,14.9,9.3,100.0,9.8,'1111122,1111122,1111122' 
NDBC,ioos:station:NOAA.NDBC:PTAT2:1,2016-04-09T06:00:00Z,27.8260,-97.0510,14.9,7.2,100.0,7.7,'1111122,1111122,1111122' 
NDBC,ioos:station:NOAA.NDBC:PTAT2:1,2016-04-09T07:00:00Z,27.8260,-97.0510,14.9,7.2,110.0,8.2,'1111122,1111122,1111122' 
NDBC,ioos:station:NOAA.NDBC:PTAT2:1,2016-04-09T08:00:00Z,27.8260,-97.0510,14.9,4.6,120.0,5.1,'1111122,1111122,1111122' 
NDBC,ioos:station:NOAA.NDBC:PTAT2:1,2016-04-09T09:00:00Z,27.8260,-97.0510,14.9,5.1,150.0,5.7,'1111122,1111122,1111122' 
NDBC,ioos:station:NOAA.NDBC:PTAT2:1,2016-04-09T10:00:00Z,27.8260,-97.0510,14.9,5.1,120.0,5.7,'1111122,1111122,1111122' 
NDBC,ioos:station:NOAA.NDBC:PTAT2:1,2016-04-09T11:00:00Z,27.8260,-97.0510,14.9,4.6,120.0,5.1,'1111122,1111122,1111122' 
NDBC,ioos:station:NOAA.NDBC:PTAT2:1,2016-04-09T12:00:00Z,27.8260,-97.0510,14.9,0.0,-9999.0,0.5,'1114422,1111122,1111122' 
NDBC,ioos:station:NOAA.NDBC:PTAT2:1,2016-04-09T13:00:00Z,27.8260,-97.0510,14.9,15.4,100.0,17.5,'1111122,1111122,1111122' 